Regional Weather Roundup
Issued by NWS

Home | Current Version | Previous Version | Graphics & Text | Print | Product List | Glossary On
Versions: 1 2 3 4 5 6 7 8 9 10 11 12 13 14 15 16 17 18 19 20 21 22 23 24 25 26 27
000
ASUS45 KSLC 240910
RWRUT

UTAH REGIONAL WEATHER ROUNDUP
NATIONAL WEATHER SERVICE SALT LAKE CITY UT
300 AM MDT WED AUG 24 2016

UTZ001>011-023>025-241000-

NORTHERN UTAH

CITY           SKY/WX    TMP DP  RH WIND       PRES   REMARKS
BRIGHAM CITY     N/A     57  28  32 CALM      30.11S
HILL AFB       CLEAR     63  25  23 E7        30.12S
LOGAN          CLEAR     45  35  68 NE3       30.13F
OGDEN          CLEAR     63  33  32 N9        30.10R
PROVO AIRPORT  CLEAR     59  36  41 SE3       30.12S
SALT LAKE CITY CLEAR     64  36  35 W3        30.09S
VERNAL         CLOUDY    57  41  55 W5        30.17S
WENDOVER       CLEAR     66  21  18 CALM      30.13S
HEBER CITY     CLEAR     45  34  65 CALM      30.19R
WEST JORDAN    CLEAR     63  27  25 W6        30.12S

$$

UTZ012>022-026-027-241000-

SOUTHERN/CENTRAL UTAH

CITY           SKY/WX    TMP DP  RH WIND       PRES   REMARKS
BLANDING       CLOUDY    53  50  88 W3        30.34S
BRYCE CANYON   CLOUDY    48  42  80 W7        30.38S
CEDAR CITY     PTCLDY    58  40  51 S3        30.23S
DELTA          CLEAR     59  43  55 S7        30.14S
MILFORD        PTCLDY    61  44  53 S12       30.17F
MOAB/CYNLANDS  MOCLDY    62  54  74 SE9       30.15F
PRICE          PTCLDY    56  40  55 N3        30.22S
ST GEORGE      SUNNY     72  46  40 SE3       30.11S

$$

REGIONAL REPORTS     COLORADO/ARIZONA

CITY           SKY/WX    TMP DP  RH WIND       PRES   REMARKS
CRAIG, CO      CLOUDY    51  46  83 CALM      30.25S
GRAND JUNCTION CLOUDY    64  49  57 E14       30.19S
RIFLE          CLOUDY    56  54  93 E6        30.24S
MONTROSE       CLOUDY    56  51  84 SW5       30.27S
CORTEZ         CLOUDY    54  52  93 NE5       30.26F
PAGE, AZ       CLOUDY    69  53  56 CALM      30.16F
GRAND CANYON   CLOUDY    56  51  84 CALM      30.33S
KINGMAN        CLEAR     66  60  81 SE7       30.12S
FLAGSTAFF      PTCLDY    47  45  93 CALM      30.34S

$$

REGIONAL REPORTS    NEVADA/IDAHO/WYOMING

CITY           SKY/WX    TMP DP  RH WIND       PRES   REMARKS
LAS VEGAS, NV  PTCLDY    83  48  29 SW13      29.96F
ELY            PTCLDY    50  36  58 S7        30.24F
ELKO           CLEAR     50  24  36 CALM      30.20S
POCATELLO, ID  CLEAR     50  19  29 S8        30.15R
BURLEY         CLEAR     55  27  34 CALM      30.12R
EVANSTON, WY   CLOUDY    57  19  22 CALM      30.27F
ROCK SPRINGS   CLOUDY    51  16  24 E8        30.26S

$$




USA.gov is the U.S. government's official web portal to all federal, state and local government web resources and services.